Regional Weather Roundup
Issued by NWS Grand Forks, ND

Home | Current Version | Previous Version | Graphics & Text | Print | Product List | Glossary On
Versions: 1 2 3 4 5 6 7 8 9 10 11 12 13 14 15 16 17 18 19 20 21 22 23 24 25 26 27 28 29 30 31 32 33 34 35 36 37 38 39 40 41 42 43 44 45 46 47 48 49 50
381
ASUS43 KFGF 131110
RWRFGF
PRAIRIE TO PINES  WEATHER ROUNDUP
NATIONAL WEATHER SERVICE EASTERN NORTH DAKOTA/GRAND FORKS ND
500 AM CST SAT FEB 13 2016

 **SATELLITE DATA USED TO AUGMENT SKY COVER AT AUTOMATED STATIONS**
 *****  WEATHER ACROSS EASTERN NORTH DAKOTA  *****

CITY           SKY/WX    TMP DP  RH WIND       PRES   REMARKS
GRAND FORKS    CLOUDY    -8 -13  78 S6        30.59F WCI -21
GRAND FRKS AFB CLEAR    -10 -16  74 S3        30.58F
DEVILS LAKE    CLOUDY    -8 -12  83 SE9       30.46F WCI -25
FARGO          CLOUDY    -7 -12  79 SE5       30.60F WCI -18
WAHPETON ARPT  CLOUDY    -6 -13  71 S3        30.62F
$$

 ***** WEATHER ACROSS CENTRAL AND WESTERN NORTH DAKOTA  *****

CITY           SKY/WX    TMP DP  RH WIND       PRES   REMARKS
BISMARCK       CLOUDY     9   0  67 SE10      30.35F WCI  -5
MINOT          CLOUDY     8  -5  55 SE9       30.29F WCI  -5
JAMESTOWN      CLOUDY    -3 -11  68 SE12      30.46F WCI -21
MINOT AFB      CLOUDY     7  -2  67 SE14G20   30.29F WCI -10
GARRISON         N/A      7   1  76 SE15      30.28F WCI -10
WILLISTON      CLOUDY    13   8  81 SE12      30.14F WCI  -1
DICKINSON      CLOUDY    11   7  84 SE23G32   30.10F WCI  -9
HETTINGER      CLOUDY    13  10  88 SE14G23   30.16F WCI  -2
$$

 *****  OTHER AIRPORT OBSERVATIONS IN OUR AREA  *****

CITY           SKY/WX    TMP DP  RH WIND       PRES   REMARKS
WALHALLA       FAIR     -13 -18  77 S8        30.55F WCI -30
GRAFTON AIRPOR FAIR     -11 -17  77 S7        30.60F WCI -26
VALLEY CITY AR FAIR      -8 -13  77 SE6       30.52F WCI -21
CANDO          NOT AVBL
CAVALIER APRT  FAIR      -9 -13  84 S5        30.57F WCI -21
GWINNER        FAIR      -4  -9  77 SE7       30.54F WCI -18
SHEYENNE NWR     N/A    -13 -20  71 CALM      29.95
ROLLA          FAIR      -9 -13  84 S13       30.39F WCI -30
 ***** THE ABOVE OBSERVATIONS ARE NON NWS ARE NOT QUALITY
       CONTROLLED AND MAY MIS-REPORT RAIN FOR SNOW...
$$

  *****  WEATHER ACROSS NORTHERN MINNESOTA  *****

CITY           SKY/WX    TMP DP  RH WIND       PRES   REMARKS
FLAG ISLAND    CLOUDY   -24 -29  76 S6        30.54S WCI -40
WARROAD        CLOUDY   -24 -29  76 S6        30.55F WCI -40
ROSEAU         PTCLDY   -24 -31  69 S5        30.57S WCI -38
HALLOCK        CLOUDY   -15 -20  76 SE6       30.58F WCI -29
THF RVR FALLS  CLOUDY   -17 -26  63 SE3       30.57F
BAUDETTE       CLOUDY   -23 -29  73 SW5       30.54F WCI -37
WASKISH        CLOUDY   -24 -27  83 CALM      30.55F
CROOKSTON      CLOUDY   -13 -17  84 SE6       30.62R WCI -27
STEPHEN NDAWN    N/A    -15 -18  84 SE3         N/A
GREENBUSH NDAW   N/A    -20 -26  76 SE2         N/A
$$
  *****  WEATHER ACROSS CENTRAL AND WEST MINNESOTA  *****

CITY           SKY/WX    TMP DP  RH WIND       PRES   REMARKS
FOSSTON          N/A    -26 -35  62 CALM      30.56F
BEMIDJI        CLOUDY   -24 -28  78 CALM      30.55F
PARK RAPIDS    CLOUDY   -18 -23  77 CALM      30.53F
ELBOW LAKE     FAIR      -8 -13  77 CALM      30.58F
WADENA         CLOUDY   -17 -22  76 CALM      30.55F
DETROIT LAKES  CLOUDY   -15 -18  84 CALM      30.55F
MOORHEAD       CLOUDY    -8 -11  84 S3        30.60F
FERGUS FALLS   CLOUDY    -8 -13  77 CALM      30.63F
MORRIS MN      CLOUDY    -8 -11  84 CALM      30.58F
STAPLES        CLOUDY   -18 -24  76 CALM      30.57S
$$
  *****  WEATHER ELSEWHERE ACROSS MINNESOTA  *****

CITY           SKY/WX    TMP DP  RH WIND       PRES   REMARKS
DULUTH         CLOUDY   -14 -21  71 NW13      30.49F WCI -36
INTRNTL FALLS  CLOUDY   -19 -24  77 W5        30.55S WCI -32
ELY            CLOUDY   -22 -27  76 CALM      30.50F
CLOQUET        CLOUDY   -15 -20  76 NW12      30.53S WCI -36
WHEATON        CLOUDY    -8 -11  84 CALM      30.62F
BRAINERD       PTCLDY   -20 -25  77 NE3       30.58F
HIBBING        CLOUDY   -20 -25  77 CALM      30.53F
ALEXANDRIA     CLOUDY   -12 -18  74 CALM      30.56F
SAINT CLOUD    PTCLDY   -11 -17  75 CALM      30.61S
MINNEAPOLIS    PTCLDY    -6 -13  71 NW5       30.64S WCI -17
$$

  *****  WEATHER ACROSS SOUTH DAKOTA  *****

CITY           SKY/WX    TMP DP  RH WIND       PRES   REMARKS
SIOUX FALLS    CLOUDY     0  -8  69 E7        30.55F WCI -13
BROOKINGS      CLOUDY    -4 -11  72 E3        30.52F
WATERTOWN      CLOUDY    -3 -11  68 SE5       30.49F WCI -13
HURON          CLOUDY     4  -5  66 SE10      30.51F WCI -11
SISSETON         N/A     -5 -11  75 S6        30.57F WCI -18
ABERDEEN       CLOUDY     3  -6  66 SE9       30.51F WCI -12
MITCHELL       CLOUDY     8  -1  66 S14       30.54F WCI  -8
PIERRE         CLOUDY    12   6  77 SE15      30.34F WCI  -4
MOBRIDGE       FLURRIES   7  -1  70 SE20      30.32F WCI -13
RAPID CITY     CLOUDY    28  25  88 SE13      30.07F WCI  17
$$

  *****  SOME WEATHER IN NEARBY STATES *****

CITY           SKY/WX    TMP DP  RH WIND       PRES   REMARKS
GLASGOW MT     CLOUDY    18  14  84 E17       29.96F WCI   3
GREAT FALLS MT CLEAR     35  28  75 NE3       29.86S
CHEYENNE WY    CLOUDY    32  25  75 SW5       30.09F
SCOTTSBLUFF NE CLOUDY    31  29  92 SE10      30.11F WCI  22
OMAHA NE       CLOUDY    10  -1  61 E7        30.63F WCI  -1
DES MOINES IA  CLOUDY     3  -5  69 N5        30.63S WCI  -6
DAVENPORT IA   CLOUDY     1  -6  72 W6        30.62R WCI -10
CHICAGO IL     PTCLDY     3 -10  54 NW12      30.54R WCI -13
EAU CLAIRE WI  PTCLDY    -9 -19  61 CALM      30.60S
LA CROSSE WI   CLOUDY    -4 -16  56 N3        30.63S
$$

  *****  SOME NATIONAL WEATHER *****

CITY           SKY/WX    TMP DP  RH WIND       PRES   REMARKS
LA GUARDIA NY  PTCLDY    22  12  65 W17G23    29.90R WCI   8
RALEIGH NC     PTCLDY    32   9  38 NW7       30.15R
ATLANTA GA     CLEAR     31  18  58 NW16      30.25R WCI  20
NEW ORLEANS LA PTCLDY    52  33  48 NE9       30.34R
OKLAHOMA CITY  CLEAR     34  23  64 NE12      30.41F
ALBUQUERQUE NM CLOUDY    40  21  46 CALM      30.30R
SALT LAKE CITY CLOUDY    29  27  92 SE3       30.28F FOG
LOS ANGELES CA FOG       54  52  93 NW5       30.08S VSB 1/4
BOISE ID       PTCLDY    32  31  96 SW3       30.22R FOG
SEATTLE WA     LGT RAIN  44  41  89 S14G21    30.24R
$$

*** WEATHER ACROSS MANITOBA...SASKATCHEWAN AND ONTARIO ***
                ***ONTARIO***

CITY           SKY/WX    TMP DP  RH WIND       PRES   REMARKS
GERALDTON      CRYSTALS -18 -26  69 NW9       30.32F WCI -38
THUNDER BAY    CLEAR    -13 -20  70 W7        30.53R WCI -29
SIOUX LOOKOUT  CLEAR    -22 -27  76 NW3       30.46S
TORONTO        CLEAR    -13 -24  58 N21G28    30.24R WCI -39
BIG TROUT LK   FLURRIES -18 -24  76 W6        30.38R WCI -33
PICKLE LAKE    CRYSTALS -22 -27  76 W8        30.37  WCI -41
DRYDEN         CLEAR    -22 -26  83 W7        30.47F WCI -39
KENORA         CLEAR    -18 -24  76 W6        30.50R WCI -33
$$
                *** MANITOBA***

CITY           SKY/WX    TMP DP  RH WIND       PRES   REMARKS
BRANDON        MOCLDY   -18 -24  76 E5        30.42F WCI -31
DAUPHIN        CLEAR    -24 -29  76 W5        30.42F WCI -38
ISLAND LAKE    NOT AVBL
PILOT MOUND      N/A    -17 -22  76 S9          N/A  WCI -36
THE PAS        PTCLDY   -18 -26  69 SE12      30.34F WCI -40
THOMPSON       CLEAR    -33 -40  68 CALM      30.41F
WINNIPEG       CLEAR    -18 -24  76 S7        30.57F WCI -35
LYNN LAKE      PTCLDY   -20 -26  76 S7        30.23F WCI -37
CHURCHILL      PTCLDY   -18 -24  76 W9        30.39F WCI -38
$$
                ***SASKATCHEWAN***

CITY           SKY/WX    TMP DP  RH WIND       PRES   REMARKS
ESTEVAN        NOT AVBL
KINDERSLEY     PTCLDY    18  14  86 SE15      29.77F WCI   3
LLOYDMINSTER   CLOUDY    10   7  85 SE10      29.83F WCI  -3
PRINCE ALBERT  CLOUDY     0  -9  65 E13       30.06F WCI -18
REGINA         FLURRIES  10   5  79 SE23G33   30.07F WCI -10
YORKTON        CLOUDY    -6 -11  77 SE16G22   30.22F WCI -28
N. BATTLEFORD  CLOUDY    12   9  85 SE20G26   29.92F WCI  -6
LA RONGE       CLEAR    -15 -22  70 NE8       30.11F WCI -32
SASKATOON      CLOUDY    14   9  79 SE16      29.99F WCI  -2
SWIFT CURRENT  LGT SNOW  19  19 100 S25G32    29.80F WCI   2
$$
NOTE: THESE ARE AUTOMATED STATIONS WITH LIMITED QUALITY CONTROL
      "FAIR" INDICATES FEW OR NO CLOUDS BELOW 12,000 FEET WITH NO
      SIGNIFICANT WEATHER AND/OR OBSTRUCTIONS TO VISIBILITY.
      SKY/WX - SKY CONDITION AND SIGNIFICANT WEATHER.
      TMP - AIR TEMPERATURE.    DP   - DEWPOINT TEMPERATURE.
      RH  - RELATIVE HUMIDITY.  PRES - PRESSURE.
      HX  - HEAT INDEX.         WCI  - WIND CHILL INDEX.
$




USA.gov is the U.S. government's official web portal to all federal, state and local government web resources and services.